Yellowstone, WY

4:49 AM MDT on May 29, 2017 (GMT -0600)
Yellowstone

Weather History for KP60 - March, 2014

Change the Weather History Date:

Sunday, March 9, 2014

  Actual Average Record
Temperature  
Mean Temperature 26 °F 21 °F  
Max Temperature 38 °F 35 °F 48 °F (2005)
Min Temperature 13 °F 7 °F -12 °F (2002)
Degree Days  
Heating Degree Days 39 44  
Month to date heating degree days 384 408  
Since 1 July heating degree days 8437 8345  
Cooling Degree Days 0 0  
Month to date cooling degree days 0 0  
Year to date cooling degree days 0 0  
Moisture  
Dew Point 23 °F    
Average Humidity 78    
Maximum Humidity 96    
Minimum Humidity 59    
Precipitation  
Precipitation 0.00 in 0.03 in 0.15 in (2009)
Month to date precipitation 1.44 0.26  
Year to date precipitation 6.52 3.78  
Sea Level Pressure  
Sea Level Pressure 30.27 in    
Wind  
Wind Speed 3 mph (WSW)    
Max Wind Speed 14 mph    
Max Gust Speed 24 mph    
T = Trace of Precipitation, MM = Missing Value Source: NWS Daily Summary

Daily Weather History Graph

Daily Weather History Graph

Search for Another Location

Airport or City:

Trip Planner

Search our weather history database for the weather conditions in past years. The results will help you decide how hot, cold, wet, or windy it might be!

Date:

Astronomy

Mar. 09, 2014 Rise Set
Actual Time 7:44 AM MDT 7:20 PM MDT
Civil Twilight 7:15 AM MDT 7:49 PM MDT
Nautical Twilight 6:42 AM MDT 8:23 PM MDT
Astronomical Twilight 6:08 AM MDT 8:57 PM MDT
Moon 1:05 PM MDT (3/9) 3:23 AM MDT (3/9)
Length of Visible Light 12h 33m
Length of Day
11h 35m
First Quarter, 61% of the Moon is Illuminated
Mar 9
First Quarter
Mar 16
Full
Mar 23
Last Quarter
Mar 30
New
Apr 7
First Quarter

Hourly Weather History & Observations

Time (MDT) Temp. Windchill Dew Point Humidity Pressure Visibility Wind Dir Wind Speed Gust Speed Precip Events Conditions
12:56 AM 21.0 °F - 19.0 °F 92% 30.38 in - Calm Calm - N/A   Unknown
1:56 AM 21.0 °F - 19.0 °F 92% 30.34 in - Calm Calm - N/A   Unknown
3:56 AM 18.0 °F 12.7 °F 15.1 °F 88% 30.34 in - Variable 3.5 mph - N/A   Unknown
4:56 AM 14.0 °F - 12.0 °F 92% 30.33 in - Calm Calm - N/A   Unknown
5:56 AM 16.0 °F - 12.9 °F 88% 30.33 in - Calm Calm - N/A   Unknown
6:56 AM 21.0 °F 16.2 °F 18.0 °F 88% 30.31 in - East 3.5 mph - N/A   Unknown
7:56 AM 21.9 °F 17.2 °F 19.9 °F 92% 30.30 in - NW 3.5 mph - N/A   Unknown
8:56 AM 24.1 °F - 21.0 °F 88% 30.30 in - Calm Calm - N/A   Unknown
9:56 AM 28.9 °F 25.2 °F 25.0 °F 85% 30.30 in - SW 3.5 mph - N/A   Unknown
10:56 AM 32.0 °F - 21.9 °F 66% 30.27 in - Calm Calm - N/A   Unknown
11:56 AM 35.1 °F 31.0 °F 23.0 °F 61% 30.26 in - Variable 4.6 mph - N/A   Unknown
12:56 PM 36.0 °F 31.1 °F 24.1 °F 62% 30.25 in - Variable 5.8 mph - N/A   Unknown
1:56 PM 37.0 °F 33.3 °F 24.1 °F 59% 30.23 in - Variable 4.6 mph - N/A   Unknown
2:56 PM 35.1 °F 26.4 °F 26.1 °F 70% 30.23 in - West 12.7 mph 21.9 mph N/A   Unknown
3:56 PM 35.1 °F 29.3 °F 27.0 °F 72% 30.25 in - Variable 6.9 mph 18.4 mph N/A   Unknown
4:56 PM 34.0 °F - 28.0 °F 79% 30.28 in - North - - N/A   Unknown
5:56 PM 33.1 °F 30.0 °F 28.9 °F 85% 30.26 in - Variable 3.5 mph - N/A   Unknown
6:56 PM 33.1 °F - 28.9 °F 85% 30.27 in - Calm Calm - N/A   Unknown
7:56 PM 33.1 °F - 28.0 °F 82% 30.26 in - Calm Calm - N/A   Unknown
8:56 PM 32.0 °F - 28.9 °F 88% 30.26 in - Calm Calm - N/A   Unknown
9:56 PM 33.1 °F - 28.0 °F 82% 30.21 in - Calm Calm - N/A   Unknown
10:56 PM 32.0 °F - 28.0 °F 85% 30.18 in - Calm Calm - N/A   Unknown
11:56 PM 32.0 °F 28.7 °F 28.0 °F 85% 30.12 in - East 3.5 mph - N/A   Unknown
12:56 AM 32.0 °F 28.7 °F 28.9 °F 88% 30.10 in - Variable 3.5 mph - N/A   Unknown